EW5833 Weather Reports


Display with metric or nautical units.
time (UTC)temp
F
wind
direction
speed
MPH
gust
MPH
rain 1hr
in
rain 24hr
in
rain mn
in
humidity
%
barometer
mb
20260504172733 75 243 3.0 10.0 0.00 0.00 0.00 31 1001.2
20260504172513 75 243 3.0 10.0 0.00 0.00 0.00 31 1001.2
20260504171303 74 255 4.0 11.0 0.00 0.00 0.00 33 1001.2
20260504170735 74 166 3.0 8.0 0.00 0.00 0.00 34 1001.3
20260504170513 74 166 3.0 8.0 0.00 0.00 0.00 34 1001.3
20260504160301 70 217 3.0 8.0 0.00 0.00 0.00 46 1002.5
20260504150302 65 214 3.0 8.0 0.00 0.01 0.00 53 1002.8
20260504141302 63 150 2.0 6.0 0.00 0.01 0.00 59 1003.0
20260504140302 62 223 2.0 6.0 0.00 0.01 0.00 60 1003.0
20260504130302 56 194 2.0 9.0 0.00 0.01 0.00 68 1003.4
20260504110513 48 206 1.0 2.0 0.00 0.00 0.00 79 1003.4
20260504100302 48 231 1.0 3.0 0.00 0.00 0.00 78 1003.4
20260504081754 49 221 1.0 3.0 0.00 0.00 0.00 74 1004.2
20260504081303 49 221 1.0 3.0 0.00 0.00 0.00 74 1004.2
20260504080302 49 214 2.0 5.0 0.00 0.00 0.00 73 1004.2
20260504070301 49 214 2.0 5.0 0.00 0.00 0.00 72 1004.9
20260504050302 51 200 2.0 7.0 0.00 0.00 0.00 67 1006.5
20260504045304 51 154 2.0 8.0 0.00 0.00 0.00 67 1006.5
20260504044745 51 190 2.0 8.0 0.00 0.00 0.00 65 1006.5
20260504044513 51 190 2.0 8.0 0.00 0.00 0.00 65 1006.5
20260504043301 51 0 2.0 9.0 0.00 0.00 0.00 66 1006.6
20260504043221 51 0 3.0 9.0 0.00 0.00 0.00 65 1006.7
20260504042512 51 0 3.0 9.0 0.00 0.00 0.00 65 1006.7
20260504042213 51 160 3.0 9.0 0.00 0.00 0.00 65 1006.9
20260504041512 51 160 3.0 9.0 0.00 0.00 0.00 65 1006.9
20260504040301 51 200 2.0 9.0 0.00 0.00 0.00 65 1007.0
20260504035304 51 145 2.0 9.0 0.00 0.00 0.00 66 1007.1
20260504035237 51 0 2.0 8.0 0.00 0.00 0.00 65 1007.1
20260504034302 51 0 2.0 8.0 0.00 0.00 0.00 65 1007.1
20260504033301 51 121 2.0 7.0 0.00 0.00 0.00 65 1007.2
20260504032303 52 178 2.0 8.0 0.00 0.00 0.00 65 1007.2
20260504032232 52 191 3.0 8.0 0.00 0.00 0.00 64 1007.2
20260504031302 52 191 3.0 8.0 0.00 0.00 0.00 64 1007.2
20260504030303 52 176 3.0 8.0 0.00 0.00 0.00 63 1007.2
20260504025301 52 144 2.0 7.0 0.00 0.00 0.00 63 1007.3
20260504024754 52 239 2.0 8.0 0.00 0.00 0.00 63 1007.6
20260504024301 52 239 2.0 8.0 0.00 0.00 0.00 63 1007.6
20260504023302 53 0 2.0 10.0 0.00 0.00 0.00 63 1007.6
20260504022306 53 320 2.0 6.0 0.00 0.00 0.00 63 1007.7
20260504021303 53 151 2.0 7.0 0.00 0.00 0.00 62 1007.7
20260504020300 53 212 2.0 10.0 0.00 0.00 0.00 62 1007.8
20260504015305 53 167 1.0 4.0 0.00 0.00 0.00 62 1007.8
20260504014303 53 271 1.0 3.0 0.00 0.00 0.00 62 1007.7
20260504013302 53 80 2.0 5.0 0.00 0.00 0.00 61 1007.6
20260504012304 53 222 1.0 5.0 0.00 0.00 0.00 61 1007.6
20260504011303 54 215 2.0 5.0 0.00 0.00 0.00 59 1007.7
20260504010302 54 110 2.0 4.0 0.00 0.00 0.00 59 1007.7
20260504005759 55 253 2.0 6.0 0.00 0.00 0.00 58 1007.6
20260504005304 55 253 2.0 6.0 0.00 0.00 0.00 58 1007.6
20260504004751 55 161 3.0 9.0 0.00 0.00 0.00 56 1007.5
20260504004303 55 161 3.0 9.0 0.00 0.00 0.00 56 1007.5
20260504004236 56 192 2.0 6.0 0.00 0.00 0.00 55 1007.4
20260504003302 56 192 2.0 6.0 0.00 0.00 0.00 55 1007.4
20260504002304 56 235 2.0 6.0 0.00 0.00 0.00 53 1007.3
20260504001756 57 137 2.0 6.0 0.00 0.00 0.00 51 1007.2
20260504001304 57 137 2.0 6.0 0.00 0.00 0.00 51 1007.2
20260504000302 57 219 3.0 6.0 0.00 0.00 0.00 50 1007.2
20260503235737 57 319 2.0 8.0 0.00 0.00 0.00 50 1007.1
20260503235513 57 319 2.0 8.0 0.00 0.00 0.00 50 1007.1
20260503234301 58 211 2.0 5.0 0.00 0.00 0.00 49 1007.1
20260503234209 58 152 2.0 6.0 0.00 0.00 0.00 48 1007.1
20260503233512 58 152 2.0 6.0 0.00 0.00 0.00 48 1007.1
20260503232305 58 0 3.0 7.0 0.00 0.00 0.00 47 1007.1
20260503231301 59 231 3.0 7.0 0.00 0.00 0.00 46 1007.1
20260503230952 59 218 3.0 9.0 0.00 0.00 0.00 46 1007.2
20260503230836 59 218 3.0 9.0 0.00 0.00 0.00 46 1007.2
20260503225300 59 228 4.0 9.0 0.00 0.00 0.00 45 1007.3
20260503224300 60 193 3.0 8.0 0.00 0.00 0.00 44 1007.4
20260503223259 60 230 3.0 6.0 0.00 0.00 0.00 44 1007.4
20260503222258 61 217 3.0 8.0 0.00 0.00 0.00 43 1007.4
20260503222211 61 273 3.0 6.0 0.00 0.00 0.00 43 1007.3
20260503221258 61 273 3.0 6.0 0.00 0.00 0.00 43 1007.3
20260503221222 61 210 3.0 8.0 0.00 0.00 0.00 42 1007.5
20260503220258 61 210 3.0 8.0 0.00 0.00 0.00 42 1007.5
20260503215259 62 227 4.0 9.0 0.00 0.00 0.00 42 1007.6
20260503214745 62 227 3.0 10.0 0.00 0.00 0.00 40 1007.4
20260503214257 62 227 3.0 10.0 0.00 0.00 0.00 40 1007.4
20260503213738 62 178 3.0 8.0 0.00 0.00 0.00 40 1007.5
20260503213256 62 178 3.0 8.0 0.00 0.00 0.00 40 1007.5
20260503212257 62 212 3.0 7.0 0.00 0.00 0.00 40 1007.4
20260503211255 61 208 4.0 10.0 0.00 0.00 0.00 40 1007.5
20260503210256 62 154 2.0 6.0 0.00 0.00 0.00 40 1007.4
20260503205255 62 0 3.0 12.0 0.00 0.00 0.00 41 1007.6
20260503204731 62 249 3.0 9.0 0.00 0.00 0.00 39 1007.6
20260503204509 62 249 3.0 9.0 0.00 0.00 0.00 39 1007.6
20260503203741 61 339 3.0 7.0 0.00 0.00 0.00 40 1007.6
20260503203254 61 339 3.0 7.0 0.00 0.00 0.00 40 1007.6
20260503202251 61 191 2.0 10.0 0.00 0.00 0.00 41 1007.5
20260503201252 61 218 3.0 6.0 0.00 0.00 0.00 40 1007.7
20260503200251 61 247 4.0 10.0 0.00 0.00 0.00 39 1007.9
20260503195312 61 348 3.0 8.0 0.00 0.00 0.00 42 1008.1
20260503195249 62 236 4.0 13.0 0.00 0.00 0.00 38 1007.9
20260503195119 61 348 3.0 8.0 0.00 0.00 0.00 42 1008.1
20260503193744 62 227 2.0 7.0 0.00 0.01 0.00 41 1008.2
20260503193249 62 227 2.0 7.0 0.00 0.01 0.00 41 1008.2
20260503192249 61 245 3.0 9.0 0.00 0.01 0.00 42 1008.3
20260503191251 62 176 4.0 10.0 0.00 0.01 0.00 41 1008.5
20260503190250 63 179 4.0 8.0 0.00 0.01 0.00 41 1008.6
20260503185737 63 309 4.0 9.0 0.00 0.01 0.00 40 1008.7
20260503185458 63 309 4.0 9.0 0.00 0.01 0.00 40 1008.7
20260503184247 63 247 3.0 7.0 0.00 0.01 0.00 41 1008.8
20260503183244 64 89 3.0 10.0 0.00 0.01 0.00 37 1008.9
20260503182243 61 247 3.0 8.0 0.00 0.01 0.00 42 1009.1
20260503181244 62 176 2.0 8.0 0.00 0.01 0.00 40 1009.1
20260503180244 61 243 4.0 7.0 0.00 0.01 0.00 41 1009.2
20260503180210 61 271 4.0 10.0 0.00 0.01 0.00 40 1009.3
20260503175242 61 271 4.0 10.0 0.00 0.01 0.00 40 1009.3
20260503174730 61 200 4.0 10.0 0.00 0.01 0.00 40 1009.5
20260503174454 61 200 4.0 10.0 0.00 0.01 0.00 40 1009.5
20260503173928 61 279 3.0 8.0 0.00 0.01 0.00 42 1009.5
20260503173817 61 279 3.0 8.0 0.00 0.01 0.00 42 1009.5